Погода в Брешиа

Италия     45°32′32″N   10°12′33″E
темп.,
°C
ветер,
м/с
пор.,
м/с
влажн.,
%
обл.,
%
осадки,
мм/ч
давл.,
гПа
погр.,
м
14 мая, пт
пт1423:00+11вюв129544 4.4 100653
02:00+11всв249545 6.8 1007112
05:00+10в139755 0.8 1007113
08:00+12вюв129047 0.9 1008256
11:00+16ююв227344 0.3 1008885
14:00+18ююв2264100 1.3 10071285
17:00+13ю3488100 4.0 1008356
20:00+13всв1288100 5.1 100850
15 мая, сб
сб1523:00+12зсз1187100 0.4 101010
02:00+11юв009020 0.4 101011
05:00+11ссз1191100 0.0 101036
08:00+12зсз1187100 0.1 1011118
11:00+15зюз227943 1.5 1011488
14:00+18юз1263100 2.8 10091186
17:00+18юв1163100 0.9 1007922
20:00+14ссз358898 2.3 1008100
16 мая, вс
вс1623:00+13ссз118889 0.1 100815
02:00+11сз229017 0.1 100745
05:00+10ссз229168 0.0 100717
08:00+13в118214 0.0 1008136
11:00+17вюв22678 0.1 1009878
14:00+19ююв226532 0.9 10081057
17:00+18ююв1173100 2.0 1007760
20:00+16всв22886 3.7 100736
17 мая, пн
пн1723:00+14св229394 1.1 100851
02:00+14св2395100 2.9 1007108
05:00+13всв129690 0.5 100754
08:00+14в239085 0.7 1007278
11:00+15вюв228843 0.2 1008365
14:00+19з237014 1.3 10071018
17:00+21зюз34570 0.3 10051536
20:00+16ююв35804 1.3 100791
18 мая, вт
вт1823:00+11в389616 3.4 1010293
02:00+11св129420 4.3 101159
05:00+11ююв1295100 1.6 1013121
08:00+11в1291100 2.4 1015311
11:00+13юз118317 0.1 1016421
14:00+17юз226352 0.3 10141287
17:00+17св216524 0.5 1014647
20:00+14с358399 1.0 1015172